User: anonymous   Login
Location: Vancouver
(49.2500°N, 123.1330°W)
Time: 02:22:16
(UTC-07:00)
Language:

Iridium 35 - Orbit

View from above orbital plane
View from above orbital plane
View from above satellite
View from above satellite

Ground track
Ground track

The orbit data is extracted from the following two-line orbital elements,

1 24966U 97056B   15086.95985672  .00000195  00000-0  62737-4 0  9999
2 24966 086.3932 298.2051 0002044 089.1697 270.9733 14.34218896916112
Epoch (UTC): 27 March 2015 23:02:11
Eccentricity: 0.0002044
inclination: 86.3932°
perigee height: 776 km
apogee height: 779 km
right ascension of ascending node: 298.2051°
argument of perigee: 89.1697°
revolutions per day: 14.34218896
mean anomaly at epoch: 270.9733°
orbit number at epoch: 91611

The dashed part of the orbit path shows where the satellite is in the earth's shadow,  

DLR